Location: Northcutt
(34.7304°N, 84.4305°W)
Time: 19:10:09
(UTC+00:00)

Transit 2A Rocket - Pass Details

Date: 08 October 2022
Orbit: 589 x 911 km, 66.7° (Epoch: 03 December)

Event Time Altitude Azimuth Distance (km) Brightness Sun altitude
Rises 18:56:16 0° 336° (NNW) 3,068 7.9 43.9°
Reaches altitude 10° 18:58:32 10° 339° (NNW) 2,195 7.2 43.6°
Maximum altitude 19:03:32 68° 63° (ENE) 821 5.6 43.0°
Drops below altitude 10° 19:09:01 10° 146° (SE) 2,400 7.9 42.4°
Sets 19:11:35 0° 149° (SSE) 3,377 8.6 42.1°
